{"data":{"norad_id":69649,"epoch":"2026-09-20T00:33:21.818016Z","epoch_age_seconds":62862,"freshness":"FRESH","line1":"1 69649U 26143A   26263.02316919  .00013806  00000+0  42912-3 0  9998","line2":"2 69649  97.2839 306.2811 0001052  92.5131 267.6232 15.33450935 15141","mean_motion":15.33450935,"eccentricity":0.0001052,"inclination_deg":97.2839,"raan_deg":306.2811,"arg_perigee_deg":92.5131,"mean_anomaly_deg":267.6232,"bstar":0.00042912,"rev_number":1514,"period_min":93.905841206455,"perigee_km":464.80556285401,"apogee_km":466.24546944741,"semimajor_km":6843.6625161507,"source":"CELESTRAK","updated_at":"2026-09-20T09:00:44.246703Z"}}